Location: Observatory
(52.1446°N, 0.4624°W)
Time: 06:26:00
(UTC+00:00)

ISS - Visible Passes

Search period start: 12 December 2017 00:00
Search period end: 22 December 2017 00:00
Orbit: 403 x 407 km, 51.6° (Epoch: 12 December)

Date Brightness Start Highest point End Pass type
(mag) Time Alt. Az. Time Alt. Az. Time Alt. Az.
12 Dec -2.4 17:54:05 10° W 17:57:09 35° SSW 17:58:42 22° SSE visible
13 Dec -2.9 17:01:49 10° W 17:05:01 49° SSW 17:08:13 10° SE visible
13 Dec -1.0 18:39:04 10° WSW 18:40:58 14° SW 18:41:49 13° SSW visible
14 Dec -1.4 17:46:22 10° W 17:48:57 22° SSW 17:51:33 10° SSE visible
15 Dec -1.9 16:53:55 10° W 16:56:53 31° SSW 16:59:51 10° SE visible
16 Dec -0.6 17:39:10 10° WSW 17:40:36 12° SW 17:42:03 10° SSW visible
17 Dec -0.8 16:46:11 10° W 16:48:36 19° SW 16:50:59 10° SSE visible
19 Dec 0.1 16:39:29 10° SW 16:40:09 10° SW 16:40:48 10° SSW visible
